Starlink 4047

operational
NORAD ID: 53243 Int'l Des: 2022-086 Owner: SPXS Country: US Constellation: starlink
LEOCIRCULAR

About Starlink 4047

Description loading...

Live Position

Loading 3D Globe...

Upcoming Passes

Altitude History

Altitude vs Time

uPlot chart will show altitude changes over time

Two-Line Element Set

1 53243U 22086B 25303.05012262 -.00001329 00000-0 -65413-4 0 9996
2 53243 53.2151 70.2743 0001043 88.9933 271.1178 15.08852661181545
Epoch: Oct 30, 2025 • Age: 25 hours

Current Status

Altitude 545.9 km
Velocity 7.59 km/s
Sub-Earth Point -20.79°S, 28.36°W
Launch Date Jul 24, 2022
Age 3.2 years
Type internet

Technical Details

Classification Payload
Mass 297.00 kg
Dry Mass 275.00 kg
Total Mass 297.00 kg
Length 0.20 m
Diameter 2.80 m
Span 9.00 m
Shape Box + pan
Manufacturer SPXS
Bus Type Starlink
Phase Status In Orbit
Owner/State SPXS/US

Large Constellations

Loading constellations...